Location: Ford County Road and Bridge Department
(37.7686°N, 99.9762°W)
Time: 21:42:45
(UTC+00:00)

Cosmos 2366 rocket - Pass Details

Date: 18 January 2020
Orbit: 956 x 996 km, 82.9° (Epoch: 19 February)

Event Time Altitude Azimuth Distance (km) Brightness Sun altitude
Rises 01:54:33 0° 187° (S) 3,626 7.2 -24.9°
Reaches altitude 10° 01:57:01 10° 188° (S) 2,688 6.5 -25.4°
Maximum altitude 02:03:11 83° 275° (W) 980 3.9 -26.6°
Drops below altitude 10° 02:09:27 10° 5° (N) 2,730 6.2 -27.9°
Enters shadow 02:09:53 - 5° (N) 2,889 6.4 -27.9°
